| time (UTC) | temp F | wind direction | speed MPH | gust MPH | rain 1hr in | rain 24hr in | rain mn in | humidity % | barometer mb |
| 20260904123332 | 53 | 344 | 1.0 | 2.0 | 0.00 | 0.55 | 0.07 | 97 | 1010.9 |
| 20260904121824 | 53 | 344 | 1.0 | 3.0 | 0.00 | 0.55 | 0.07 | 97 | 1010.9 |
| 20260904120354 | 52 | 344 | 1.0 | 3.0 | 0.00 | 0.55 | 0.07 | 97 | 1010.8 |
| 20260904114821 | 52 | 344 | 1.0 | 2.0 | 0.00 | 0.55 | 0.07 | 97 | 1010.7 |
| 20260904113333 | 53 | 344 | 0.0 | 2.0 | 0.00 | 0.55 | 0.07 | 97 | 1010.5 |
| 20260904111826 | 53 | 344 | 1.0 | 3.0 | 0.00 | 0.55 | 0.07 | 97 | 1010.4 |
| 20260904110335 | 53 | 344 | 0.0 | 1.0 | 0.00 | 0.55 | 0.07 | 97 | 1010.4 |
| 20260904104843 | 53 | 344 | 2.0 | 3.0 | 0.00 | 0.55 | 0.07 | 97 | 1010.3 |
| 20260904101820 | 53 | 349 | 2.0 | 3.0 | 0.00 | 0.55 | 0.07 | 97 | 1010.3 |
| 20260904100331 | 52 | 348 | 2.0 | 4.0 | 0.00 | 0.55 | 0.07 | 97 | 1010.2 |
| 20260904094822 | 53 | 17 | 4.0 | 5.0 | 0.01 | 0.55 | 0.07 | 97 | 1010.2 |
| 20260904093332 | 53 | 16 | 3.0 | 5.0 | 0.02 | 0.55 | 0.07 | 97 | 1010.3 |
| 20260904091824 | 53 | 15 | 4.0 | 8.0 | 0.04 | 0.55 | 0.07 | 97 | 1010.3 |
| 20260904090332 | 53 | 36 | 3.0 | 4.0 | 0.06 | 0.55 | 0.07 | 97 | 1010.4 |
| 20260904084822 | 53 | 31 | 2.0 | 5.0 | 0.06 | 0.54 | 0.06 | 97 | 1010.4 |
| 20260904083334 | 53 | 34 | 3.0 | 4.0 | 0.05 | 0.53 | 0.05 | 97 | 1010.3 |
| 20260904081823 | 53 | 90 | 2.0 | 3.0 | 0.03 | 0.51 | 0.03 | 97 | 1010.3 |
| 20260904080333 | 53 | 122 | 4.0 | 7.0 | 0.01 | 0.49 | 0.01 | 97 | 1010.3 |
| 20260904074827 | 53 | 127 | 4.0 | 6.0 | 0.00 | 0.48 | 0.00 | 97 | 1010.2 |
| 20260904073335 | 53 | 122 | 1.0 | 3.0 | 0.00 | 0.48 | 0.48 | 97 | 1010.2 |
| 20260904071827 | 53 | 125 | 2.0 | 5.0 | 0.00 | 0.48 | 0.48 | 97 | 1010.3 |
| 20260904070339 | 53 | 134 | 3.0 | 5.0 | 0.00 | 0.48 | 0.48 | 97 | 1010.1 |
| 20260904064824 | 53 | 117 | 1.0 | 3.0 | 0.00 | 0.48 | 0.48 | 97 | 1010.1 |
| 20260904063338 | 53 | 61 | 0.0 | 2.0 | 0.00 | 0.49 | 0.48 | 96 | 1010.1 |
| 20260904061829 | 53 | 61 | 1.0 | 3.0 | 0.00 | 0.49 | 0.48 | 96 | 1010.2 |
| 20260904060321 | 53 | 80 | 1.0 | 3.0 | 0.00 | 0.49 | 0.48 | 96 | 1010.2 |
| 20260904054834 | 53 | 116 | 1.0 | 3.0 | 0.00 | 0.49 | 0.48 | 96 | 1010.1 |
| 20260904053343 | 53 | 119 | 1.0 | 3.0 | 0.00 | 0.54 | 0.48 | 96 | 1010.2 |
| 20260904051855 | 53 | 80 | 0.0 | 6.0 | 0.00 | 0.54 | 0.48 | 96 | 1010.2 |
| 20260904050325 | 53 | 94 | 4.0 | 6.0 | 0.00 | 0.54 | 0.48 | 96 | 1010.3 |
| 20260904044836 | 53 | 121 | 3.0 | 8.0 | 0.00 | 0.54 | 0.48 | 96 | 1010.2 |
| 20260904043322 | 53 | 140 | 4.0 | 9.0 | 0.01 | 0.54 | 0.48 | 96 | 1010.3 |
| 20260904041834 | 53 | 102 | 4.0 | 5.0 | 0.01 | 0.54 | 0.48 | 96 | 1010.2 |
| 20260904040325 | 53 | 96 | 3.0 | 6.0 | 0.03 | 0.54 | 0.48 | 96 | 1010.2 |
| 20260904034837 | 53 | 115 | 3.0 | 8.0 | 0.03 | 0.54 | 0.48 | 96 | 1010.1 |
| 20260904033328 | 53 | 131 | 3.0 | 5.0 | 0.02 | 0.53 | 0.47 | 96 | 1010.0 |
| 20260904031819 | 54 | 137 | 4.0 | 6.0 | 0.03 | 0.53 | 0.47 | 96 | 1009.9 |
| 20260904030332 | 54 | 136 | 4.0 | 6.0 | 0.02 | 0.51 | 0.45 | 96 | 1010.0 |
| 20260904024821 | 54 | 102 | 3.0 | 12.0 | 0.04 | 0.51 | 0.45 | 96 | 1010.2 |
| 20260904023332 | 54 | 123 | 6.0 | 9.0 | 0.05 | 0.51 | 0.45 | 96 | 1010.0 |
| 20260904021844 | 54 | 141 | 6.0 | 10.0 | 0.05 | 0.50 | 0.44 | 95 | 1009.9 |
| 20260904020335 | 54 | 115 | 5.0 | 9.0 | 0.05 | 0.49 | 0.43 | 95 | 1010.0 |
| 20260904014823 | 54 | 131 | 4.0 | 8.0 | 0.03 | 0.47 | 0.41 | 94 | 1009.9 |
| 20260904013335 | 54 | 114 | 7.0 | 10.0 | 0.02 | 0.46 | 0.40 | 94 | 1010.0 |
| 20260904011828 | 55 | 129 | 3.0 | 11.0 | 0.01 | 0.45 | 0.39 | 93 | 1009.9 |
| 20260904010320 | 56 | 145 | 5.0 | 11.0 | 0.00 | 0.44 | 0.38 | 94 | 1010.0 |
| 20260904004830 | 57 | 67 | 5.0 | 10.0 | 0.00 | 0.44 | 0.38 | 95 | 1009.9 |
| 20260904003323 | 57 | 109 | 4.0 | 8.0 | 0.00 | 0.47 | 0.38 | 95 | 1009.9 |
| 20260904001832 | 57 | 125 | 4.0 | 9.0 | 0.00 | 0.47 | 0.38 | 95 | 1010.0 |
| 20260904000321 | 57 | 112 | 4.0 | 8.0 | 0.00 | 0.47 | 0.38 | 95 | 1010.1 |
| 20260903234833 | 57 | 111 | 4.0 | 9.0 | 0.01 | 0.47 | 0.38 | 96 | 1010.0 |
| 20260903233351 | 57 | 126 | 4.0 | 6.0 | 0.03 | 0.51 | 0.38 | 95 | 1010.0 |
| 20260903231822 | 56 | 165 | 2.0 | 8.0 | 0.03 | 0.51 | 0.38 | 96 | 1010.0 |
| 20260903230335 | 56 | 123 | 3.0 | 5.0 | 0.03 | 0.51 | 0.38 | 97 | 1010.0 |
| 20260903224825 | 54 | 166 | 1.0 | 8.0 | 0.03 | 0.50 | 0.37 | 95 | 1010.2 |
| 20260903223356 | 55 | 179 | 3.0 | 7.0 | 0.01 | 0.60 | 0.35 | 94 | 1010.3 |
| 20260903221825 | 55 | 185 | 3.0 | 8.0 | 0.02 | 0.60 | 0.35 | 95 | 1010.4 |
| 20260903220339 | 55 | 206 | 3.0 | 6.0 | 0.05 | 0.60 | 0.35 | 97 | 1010.4 |
| 20260903214833 | 53 | 184 | 3.0 | 9.0 | 0.06 | 0.59 | 0.34 | 96 | 1010.4 |
| 20260903213321 | 53 | 131 | 1.0 | 9.0 | 0.08 | 0.64 | 0.34 | 96 | 1010.7 |
| 20260903211854 | 52 | 179 | 1.0 | 8.0 | 0.10 | 0.63 | 0.33 | 96 | 1010.5 |
| 20260903210324 | 52 | 164 | 6.0 | 12.0 | 0.08 | 0.60 | 0.30 | 95 | 1010.5 |
| 20260903204834 | 53 | 173 | 3.0 | 8.0 | 0.08 | 0.58 | 0.28 | 95 | 1010.4 |
| 20260903203325 | 53 | 184 | 3.0 | 11.0 | 0.07 | 0.56 | 0.26 | 95 | 1010.6 |
| 20260903201837 | 54 | 167 | 6.0 | 13.0 | 0.04 | 0.53 | 0.23 | 94 | 1010.7 |
| 20260903200332 | 55 | 194 | 6.0 | 22.0 | 0.03 | 0.52 | 0.22 | 95 | 1010.6 |
| 20260903194823 | 55 | 163 | 4.0 | 13.0 | 0.01 | 0.50 | 0.20 | 95 | 1010.5 |
| 20260903193331 | 56 | 116 | 4.0 | 12.0 | 0.00 | 0.55 | 0.19 | 94 | 1010.5 |
| 20260903191849 | 56 | 176 | 4.0 | 12.0 | 0.00 | 0.55 | 0.19 | 94 | 1010.6 |
| 20260903190320 | 56 | 164 | 3.0 | 13.0 | 0.01 | 0.55 | 0.19 | 95 | 1010.6 |
| 20260903184833 | 56 | 112 | 7.0 | 15.0 | 0.01 | 0.55 | 0.19 | 96 | 1010.5 |
| 20260903183325 | 56 | 147 | 5.0 | 13.0 | 0.01 | 0.67 | 0.19 | 96 | 1010.5 |
| 20260903181846 | 55 | 119 | 6.0 | 12.0 | 0.01 | 0.67 | 0.19 | 96 | 1010.5 |
| 20260903180332 | 55 | 131 | 4.0 | 13.0 | 0.03 | 0.66 | 0.18 | 96 | 1010.6 |
| 20260903174823 | 56 | 119 | 7.0 | 13.0 | 0.09 | 0.66 | 0.18 | 97 | 1010.5 |
| 20260903173330 | 55 | 117 | 7.0 | 16.0 | 0.10 | 0.72 | 0.18 | 97 | 1010.5 |
| 20260903171823 | 54 | 130 | 5.0 | 13.0 | 0.10 | 0.72 | 0.18 | 96 | 1010.6 |
| 20260903170333 | 55 | 102 | 10.0 | 18.0 | 0.06 | 0.68 | 0.14 | 95 | 1010.5 |
| 20260903164823 | 55 | 98 | 7.0 | 16.0 | 0.01 | 0.63 | 0.09 | 94 | 1010.6 |
| 20260903163321 | 55 | 116 | 3.0 | 14.0 | 0.00 | 0.62 | 0.08 | 94 | 1010.6 |
| 20260903161830 | 55 | 123 | 3.0 | 13.0 | 0.00 | 0.62 | 0.08 | 96 | 1010.7 |
| 20260903160352 | 55 | 142 | 5.0 | 12.0 | 0.00 | 0.62 | 0.08 | 96 | 1010.5 |
| 20260903154823 | 54 | 159 | 5.0 | 11.0 | 0.00 | 0.62 | 0.08 | 96 | 1010.5 |
| 20260903153329 | 53 | 141 | 5.0 | 12.0 | 0.00 | 0.62 | 0.08 | 96 | 1010.5 |
| 20260903151823 | 53 | 144 | 7.0 | 12.0 | 0.00 | 0.62 | 0.08 | 97 | 1010.4 |
| 20260903150334 | 53 | 137 | 8.0 | 12.0 | 0.00 | 0.62 | 0.08 | 97 | 1010.4 |
| 20260903144846 | 53 | 115 | 3.0 | 11.0 | 0.01 | 0.62 | 0.08 | 97 | 1010.5 |
| 20260903143342 | 53 | 121 | 3.0 | 7.0 | 0.03 | 0.62 | 0.08 | 96 | 1010.3 |
| 20260903141850 | 53 | 129 | 5.0 | 9.0 | 0.05 | 0.62 | 0.08 | 96 | 1010.3 |
| 20260903140322 | 53 | 123 | 4.0 | 12.0 | 0.08 | 0.62 | 0.08 | 96 | 1010.3 |
| 20260903134833 | 53 | 119 | 5.0 | 14.0 | 0.07 | 0.61 | 0.07 | 96 | 1010.3 |
| 20260903131835 | 53 | 134 | 4.0 | 12.0 | 0.03 | 0.57 | 0.03 | 96 | 1010.3 |
| 20260903130329 | 53 | 121 | 5.0 | 9.0 | 0.00 | 0.54 | 0.00 | 96 | 1010.1 |
| 20260903124834 | 53 | 156 | 4.0 | 11.0 | 0.00 | 0.54 | 0.00 | 96 | 1010.1 |